AUA108 LOWI-LOWW

Flight info

Callsign AUA108
Flight time 0h 41m
Altitude 29000
Route RTT DCT NEMAL NEMAL2W
Aircraft E195/M-SDE3GILORVW/S

Departure

Time 2026-05-06 18:01
Airport Innsbruck Airport (LOWI)

Arrival

Time 2026-05-06 18:43
Airport Vienna International Airport (LOWW)
Time Latitude Longitude Altitude Speed Heading
2026-05-06 17:38 47.25819 11.34996 1897 ft 0 kts 171°
2026-05-06 17:50 47.25818 11.34996 1897 ft 0 kts 171°
2026-05-06 17:51 47.25825 11.34994 1897 ft 2 kts 171°
2026-05-06 17:51 47.25840 11.34991 1897 ft 2 kts 171°
2026-05-06 17:51 47.25855 11.34987 1898 ft 2 kts 174°
2026-05-06 17:51 47.25870 11.34997 1898 ft 2 kts 237°
2026-05-06 17:52 47.25873 11.35010 1898 ft 0 kts 262°
2026-05-06 17:55 47.25871 11.34997 1898 ft 1 kts 250°
2026-05-06 17:55 47.25863 11.34998 1898 ft 1 kts 114°
2026-05-06 17:55 47.25872 11.35027 1898 ft 4 kts 71°
2026-05-06 17:56 47.25880 11.35086 1898 ft 6 kts 81°
2026-05-06 17:56 47.25889 11.35167 1897 ft 9 kts 81°
2026-05-06 17:56 47.25898 11.35255 1897 ft 6 kts 78°
2026-05-06 17:56 47.25933 11.35287 1897 ft 6 kts 356°
2026-05-06 17:57 47.25966 11.35280 1897 ft 0 kts 348°
2026-05-06 17:57 47.25966 11.35279 1897 ft 0 kts 348°
2026-05-06 17:57 47.25979 11.35276 1897 ft 4 kts 349°
2026-05-06 17:57 47.26030 11.35264 1897 ft 10 kts 351°
2026-05-06 17:58 47.26106 11.35262 1897 ft 8 kts 43°
2026-05-06 17:58 47.26123 11.35350 1897 ft 10 kts 81°
2026-05-06 17:58 47.26138 11.35493 1894 ft 17 kts 82°
2026-05-06 17:58 47.26112 11.35649 1894 ft 12 kts 90°
2026-05-06 17:59 47.26152 11.35639 1894 ft 10 kts 267°
2026-05-06 17:59 47.26151 11.35623 1894 ft 0 kts 259°
2026-05-06 18:00 47.26150 11.35619 1894 ft 2 kts 259°
2026-05-06 18:00 47.26117 11.35316 1897 ft 64 kts 261°
2026-05-06 18:00 47.26012 11.34356 1904 ft 121 kts 261°
2026-05-06 18:00 47.25851 11.32874 1947 ft 162 kts 256°
2026-05-06 18:01 47.25770 11.31227 2402 ft 162 kts 276°
2026-05-06 18:01 47.26019 11.29542 2823 ft 168 kts 279°
2026-05-06 18:01 47.26222 11.27801 3326 ft 174 kts 258°
2026-05-06 18:01 47.25533 11.26464 3735 ft 174 kts 193°
2026-05-06 18:02 47.24445 11.27088 4250 ft 188 kts 121°
2026-05-06 18:02 47.24351 11.29051 4939 ft 194 kts 84°
2026-05-06 18:02 47.24603 11.30961 5700 ft 190 kts 84°
2026-05-06 18:02 47.24804 11.32902 6289 ft 194 kts 87°
2026-05-06 18:03 47.24961 11.34856 6955 ft 193 kts 89°
2026-05-06 18:03 47.25138 11.36870 7404 ft 207 kts 81°
2026-05-06 18:03 47.25603 11.39100 7479 ft 241 kts 76°
2026-05-06 18:03 47.26153 11.41642 7601 ft 272 kts 74°
2026-05-06 18:04 47.26757 11.44412 7925 ft 292 kts 75°
2026-05-06 18:04 47.27384 11.47298 8664 ft 297 kts 75°
2026-05-06 18:04 47.28017 11.50214 9318 ft 304 kts 75°
2026-05-06 18:04 47.28666 11.53211 10028 ft 307 kts 75°
2026-05-06 18:05 47.29314 11.56216 10699 ft 312 kts 74°
2026-05-06 18:05 47.29992 11.59357 11287 ft 319 kts 74°
2026-05-06 18:05 47.30687 11.62585 11843 ft 328 kts 73°
2026-05-06 18:05 47.31643 11.65789 12130 ft 346 kts 60°
2026-05-06 18:06 47.32379 11.67649 12476 ft 350 kts 60°
2026-05-06 18:06 47.33203 11.69706 12929 ft 351 kts 60°
2026-05-06 18:06 47.34469 11.72829 13565 ft 355 kts 60°
2026-05-06 18:06 47.35751 11.75973 14147 ft 360 kts 60°
2026-05-06 18:07 47.37055 11.79170 14756 ft 363 kts 59°
2026-05-06 18:07 47.38354 11.82355 15349 ft 367 kts 59°
2026-05-06 18:07 47.39679 11.85608 15775 ft 366 kts 59°
2026-05-06 18:07 47.40990 11.88831 15739 ft 367 kts 59°
2026-05-06 18:08 47.42328 11.92123 15789 ft 369 kts 59°
2026-05-06 18:08 47.43573 11.95572 15773 ft 369 kts 65°
2026-05-06 18:08 47.44744 11.99157 15777 ft 370 kts 65°
2026-05-06 18:08 47.45916 12.02789 15990 ft 382 kts 65°
2026-05-06 18:09 47.47036 12.06269 16872 ft 377 kts 65°
2026-05-06 18:09 47.48156 12.09764 17559 ft 378 kts 65°
2026-05-06 18:09 47.49289 12.13303 18091 ft 383 kts 65°
2026-05-06 18:09 47.50437 12.16892 18652 ft 386 kts 65°
2026-05-06 18:10 47.51580 12.20472 19197 ft 389 kts 65°
2026-05-06 18:10 47.52741 12.24116 19718 ft 393 kts 65°
2026-05-06 18:10 47.53913 12.27796 20223 ft 396 kts 65°
2026-05-06 18:10 47.55092 12.31506 20718 ft 399 kts 65°
2026-05-06 18:11 47.56268 12.35211 21186 ft 402 kts 65°
2026-05-06 18:11 47.57435 12.39012 21643 ft 405 kts 71°
2026-05-06 18:11 47.58041 12.43056 22018 ft 406 kts 82°
2026-05-06 18:11 47.58549 12.47150 22552 ft 406 kts 82°
2026-05-06 18:12 47.59053 12.51296 22958 ft 410 kts 82°
2026-05-06 18:12 47.59552 12.55422 23331 ft 413 kts 82°
2026-05-06 18:12 47.60058 12.59633 23732 ft 416 kts 82°
2026-05-06 18:12 47.60562 12.63838 24122 ft 418 kts 82°
2026-05-06 18:13 47.61074 12.68123 24501 ft 421 kts 83°
2026-05-06 18:13 47.61587 12.72437 24867 ft 423 kts 83°
2026-05-06 18:13 47.62101 12.76772 25216 ft 426 kts 83°
2026-05-06 18:13 47.62619 12.81146 25562 ft 428 kts 83°
2026-05-06 18:14 47.63138 12.85554 25894 ft 430 kts 83°
2026-05-06 18:14 47.63656 12.89967 26219 ft 432 kts 83°
2026-05-06 18:14 47.64185 12.94486 26540 ft 435 kts 83°
2026-05-06 18:14 47.64706 12.98957 26849 ft 437 kts 83°
2026-05-06 18:15 47.65221 13.03385 27148 ft 439 kts 83°
2026-05-06 18:15 47.65736 13.07839 27427 ft 441 kts 83°
2026-05-06 18:15 47.66249 13.12284 27706 ft 443 kts 83°
2026-05-06 18:15 47.66768 13.16800 27979 ft 445 kts 83°
2026-05-06 18:16 47.67290 13.21357 28244 ft 447 kts 83°
2026-05-06 18:16 47.67810 13.25916 28508 ft 449 kts 83°
2026-05-06 18:16 47.68327 13.30455 28748 ft 449 kts 83°
2026-05-06 18:16 47.68845 13.35041 28775 ft 455 kts 83°
2026-05-06 18:17 47.69902 13.44426 28803 ft 470 kts 83°
2026-05-06 18:17 47.70987 13.54129 28804 ft 481 kts 82°
2026-05-06 18:18 47.72076 13.63945 28783 ft 481 kts 82°
2026-05-06 18:18 47.73150 13.73710 28778 ft 479 kts 83°
2026-05-06 18:19 47.74226 13.83580 28778 ft 479 kts 83°
2026-05-06 18:19 47.75292 13.93431 28778 ft 479 kts 83°
2026-05-06 18:20 47.76359 14.03381 28778 ft 479 kts 83°
2026-05-06 18:20 47.77405 14.13213 28767 ft 468 kts 83°
2026-05-06 18:21 47.78403 14.22673 28760 ft 459 kts 83°
2026-05-06 18:21 47.78890 14.27313 28561 ft 444 kts 83°
2026-05-06 18:21 47.79353 14.31746 28298 ft 431 kts 83°
2026-05-06 18:22 47.79806 14.36101 28002 ft 420 kts 84°
2026-05-06 18:22 47.80245 14.40342 27671 ft 410 kts 84°
2026-05-06 18:22 47.80668 14.44436 27318 ft 402 kts 84°
2026-05-06 18:22 47.81087 14.48509 26936 ft 394 kts 84°
2026-05-06 18:23 47.81497 14.52509 26545 ft 387 kts 84°
2026-05-06 18:23 47.81898 14.56436 26078 ft 390 kts 84°
2026-05-06 18:23 47.82312 14.60528 25588 ft 416 kts 83°
2026-05-06 18:23 47.82753 14.64877 25214 ft 436 kts 83°
2026-05-06 18:24 47.83213 14.69421 24679 ft 442 kts 84°
2026-05-06 18:24 47.83665 14.73902 24134 ft 441 kts 84°
2026-05-06 18:24 47.84111 14.78354 23579 ft 436 kts 84°
2026-05-06 18:24 47.84555 14.82806 23012 ft 430 kts 84°
2026-05-06 18:25 47.84990 14.87176 22446 ft 424 kts 84°
2026-05-06 18:25 47.85416 14.91480 21882 ft 419 kts 84°
2026-05-06 18:25 47.85835 14.95727 21319 ft 414 kts 84°
2026-05-06 18:25 47.86244 14.99892 20761 ft 409 kts 84°
2026-05-06 18:26 47.86653 15.04078 20175 ft 406 kts 84°
2026-05-06 18:26 47.87056 15.08206 19686 ft 401 kts 84°
2026-05-06 18:26 47.87453 15.12300 19275 ft 405 kts 84°
2026-05-06 18:26 47.87855 15.16455 18817 ft 408 kts 84°
2026-05-06 18:27 47.88254 15.20596 18382 ft 408 kts 84°
2026-05-06 18:27 47.88659 15.24813 17906 ft 406 kts 84°
2026-05-06 18:27 47.89050 15.28904 17469 ft 403 kts 84°
2026-05-06 18:27 47.89441 15.33014 17022 ft 401 kts 84°
2026-05-06 18:28 47.89605 15.37192 16591 ft 401 kts 93°
2026-05-06 18:28 47.89577 15.41301 16343 ft 402 kts 91°
2026-05-06 18:28 47.90157 15.45386 15926 ft 408 kts 67°
2026-05-06 18:28 47.91761 15.48847 15539 ft 406 kts 43°
2026-05-06 18:29 47.93819 15.51619 15288 ft 403 kts 41°
2026-05-06 18:29 47.95892 15.54476 14925 ft 402 kts 41°
2026-05-06 18:29 47.97952 15.57305 14554 ft 400 kts 41°
2026-05-06 18:29 47.99963 15.60069 14157 ft 394 kts 41°
2026-05-06 18:30 48.01958 15.62813 13744 ft 384 kts 41°
2026-05-06 18:30 48.03376 15.64764 13439 ft 378 kts 41°
2026-05-06 18:30 48.05310 15.67432 13007 ft 369 kts 40°
2026-05-06 18:30 48.07158 15.69980 12618 ft 358 kts 41°
2026-05-06 18:31 48.08962 15.72468 12197 ft 350 kts 41°
2026-05-06 18:31 48.10725 15.74905 11774 ft 342 kts 41°
2026-05-06 18:31 48.12453 15.77296 11316 ft 332 kts 41°
2026-05-06 18:31 48.14107 15.79585 10911 ft 322 kts 41°
2026-05-06 18:32 48.15726 15.81829 10492 ft 312 kts 41°
2026-05-06 18:32 48.17287 15.83995 10074 ft 303 kts 41°
2026-05-06 18:32 48.18816 15.86116 9659 ft 294 kts 41°
2026-05-06 18:32 48.20276 15.88145 9254 ft 286 kts 41°
2026-05-06 18:33 48.21716 15.90147 8848 ft 279 kts 41°
2026-05-06 18:33 48.23212 15.91917 8425 ft 271 kts 27°
2026-05-06 18:33 48.24781 15.93395 8040 ft 266 kts 46°
2026-05-06 18:33 48.25588 15.95779 7716 ft 257 kts 82°
2026-05-06 18:34 48.25814 15.98436 7455 ft 256 kts 85°
2026-05-06 18:34 48.26007 16.01097 7127 ft 256 kts 89°
2026-05-06 18:34 48.26173 16.03742 6815 ft 256 kts 85°
2026-05-06 18:34 48.26388 16.06381 6496 ft 255 kts 86°
2026-05-06 18:35 48.26210 16.08984 6184 ft 249 kts 104°
2026-05-06 18:35 48.25820 16.11513 5872 ft 244 kts 114°
2026-05-06 18:35 48.25096 16.13738 5723 ft 228 kts 120°
2026-05-06 18:35 48.24393 16.15819 5547 ft 220 kts 118°
2026-05-06 18:36 48.23746 16.17867 5410 ft 208 kts 119°
2026-05-06 18:36 48.23141 16.19758 5324 ft 197 kts 119°
2026-05-06 18:36 48.22552 16.21596 5165 ft 194 kts 119°
2026-05-06 18:36 48.21972 16.23402 5027 ft 194 kts 119°
2026-05-06 18:37 48.21381 16.25235 4796 ft 195 kts 119°
2026-05-06 18:37 48.20790 16.27071 4547 ft 195 kts 119°
2026-05-06 18:37 48.20204 16.28890 4286 ft 193 kts 119°
2026-05-06 18:37 48.19619 16.30707 4016 ft 191 kts 119°
2026-05-06 18:38 48.19044 16.32489 3748 ft 189 kts 119°
2026-05-06 18:38 48.18474 16.34257 3480 ft 187 kts 119°
2026-05-06 18:38 48.17906 16.36014 3213 ft 186 kts 119°
2026-05-06 18:38 48.17352 16.37730 2943 ft 181 kts 119°
2026-05-06 18:39 48.16814 16.39393 2698 ft 168 kts 119°
2026-05-06 18:39 48.16320 16.40920 2469 ft 152 kts 120°
2026-05-06 18:39 48.15878 16.42284 2232 ft 136 kts 120°
2026-05-06 18:40 48.15088 16.44715 1891 ft 126 kts 120°
2026-05-06 18:40 48.14702 16.45902 1719 ft 127 kts 120°
2026-05-06 18:40 48.14312 16.47094 1542 ft 127 kts 120°
2026-05-06 18:40 48.13925 16.48282 1364 ft 127 kts 120°
2026-05-06 18:41 48.13546 16.49473 1168 ft 127 kts 116°
2026-05-06 18:41 48.13176 16.50645 979 ft 125 kts 119°
2026-05-06 18:41 48.12788 16.51820 823 ft 124 kts 117°
2026-05-06 18:41 48.12404 16.52979 668 ft 124 kts 119°
2026-05-06 18:42 48.12030 16.54122 572 ft 113 kts 118°
2026-05-06 18:42 48.11738 16.54997 582 ft 73 kts 115°
2026-05-06 18:42 48.11550 16.55578 581 ft 60 kts 116°
2026-05-06 18:42 48.11364 16.56151 588 ft 61 kts 115°
2026-05-06 18:43 48.11297 16.56571 596 ft 36 kts 92°
2026-05-06 18:43 48.11301 16.56732 599 ft 0 kts 67°
2026-05-06 18:43 48.11303 16.56739 599 ft 3 kts 65°
2026-05-06 18:44 48.11351 16.56792 601 ft 14 kts 22°
2026-05-06 18:44 48.11451 16.56863 604 ft 15 kts 26°
2026-05-06 18:44 48.11502 16.56900 604 ft 0 kts 26°
2026-05-06 18:45 48.11504 16.56902 604 ft 2 kts 26°
2026-05-06 18:45 48.11559 16.56920 604 ft 13 kts 342°
2026-05-06 18:45 48.11625 16.56867 605 ft 4 kts 28°
2026-05-06 18:45 48.11649 16.56884 605 ft 4 kts 25°
2026-05-06 18:46 48.11665 16.56896 604 ft 0 kts 25°